Weather in Ploski

Russia / Tver Oblast     56°39′42″N   36°39′23″E
temp.,
°C
wind,
m/s
gust,
m/s
humid.,
%
clouds,
%
prec.,
mm/h
press.,
hPa
HPBL,
m
15 april, thu
thu1500:00+11nne3890100 0.1 1017234
03:00+10nne3997100 0.1 1018312
06:00+8nne41093100 0.0 1018372
09:00+9ne4890100 0.0 1019450
12:00+10ne5781100 0.0 1020613
15:00+11ne5980100 0.0 1020721
18:00+10ne61280100 0.0 1020678
21:00+8ne61384100 0.0 1021594
16 april, fri
fri1600:00+6ne51387100 0.0 1022559
03:00+5ene51388100 0.0 1022510
06:00+4ene51288100 0.0 1023501
09:00+6ene51078100 0.0 1024560
12:00+11ene5865100 0.0 1024826
15:00+13ene685992 0.0 10241119
18:00+12ene51061100 0.0 10241022
21:00+8ene5136888 0.0 1025593
17 april, sat
sat1700:00+7ene5136579 0.0 1026491
03:00+5ene4137040 0.0 1026448
06:00+4ene5137330 0.0 1027465
09:00+8ene510565 0.0 1028623
12:00+12ene684519 0.0 10271055
15:00+13ene68365 0.0 10281377
18:00+12ene58405 0.0 10281130
21:00+7ne412615 0.0 1029322
18 april, sun
sun1800:00+5ne311695 0.0 1030278
03:00+3ne310785 0.0 1030208
06:00+2ne28835 0.0 1031195
09:00+8ene47550 0.0 1031563
12:00+12ene46395 0.0 10311573
15:00+13ene45355 0.0 10301899
18:00+12ene35435 0.0 10301087
21:00+7ene26655 0.0 1032115
19 april, mon
mon1900:00+5ene24745 0.0 103281
03:00+4e24815 0.0 103469
06:00+4e258254 0.0 1034115
09:00+9e36585 0.0 1034585
12:00+12e464447 0.0 10341792
15:00+13e453986 0.0 10332051
18:00+12e354633 0.0 10331313
21:00+7ese3106413 0.0 1034275